Skip Page Navigation
NASA JPL Caltech
NASA Logo - Jet Propulsion Laboratory + View the NASA Portal
+ Center for Near-Earth Object Studies
JPL Home Earth Solar System Stars & Galaxies Technology
JPL Solar System Dynamics
BODIES ORBITS EPHEMERIDES TOOLS PHYSICAL DATA DISCOVERY FAQ SITE MAP
JPL Small-Body Database Browser
Search: [ help ]  
100476 (1996 TK37)
Classification: Main-belt Asteroid          SPK-ID: 2100476
Ephemeris | Orbit Diagram | Orbital Elements | Mission Design | Physical Parameters | Discovery Circumstances | Close-Approach Data ]

[ show orbit diagram ]
Orbital Elements at Epoch 2459000.5 (2020-May-31.0) TDB
Reference: JPL 19 (heliocentric ecliptic J2000)
 Element Value Uncertainty (1-sigma)   Units 
e .07791874704134354 4.2183e-08  
a 3.132029231901513 2.384e-08 au
q 2.887985438454886 1.3368e-07 au
i 1.909378198180449 6.2005e-06 deg
node 207.9294996961173 0.00014048 deg
peri 98.64360097165184 0.00014616 deg
M 178.2701446727347 4.1064e-05 deg
tp 2457997.933351593943
(2017-Sep-01.43335159)
0.00023026 TDB
period 2024.590231240113
5.54
2.3116e-05
6.329e-08
d
yr
n .1778137592709271 2.0302e-09 deg/d
Q 3.376073025348141 2.5698e-08 au
  Orbit Determination Parameters
   # obs. used (total)      406  
   data-arc span      10694 days (29.28 yr)  
   first obs. used      1990-09-25  
   last obs. used      2020-01-05  
   planetary ephem.      DE431  
   SB-pert. ephem.      SB431-N16  
   condition code      0  
   norm. resid. RMS      .57486  
   source      ORB  
   producer      Otto Matic  
   solution date      2020-Jan-29 14:57:08  

Additional Information
 Earth MOID = 1.87387 au 
 Jupiter MOID = 1.80769 au 
 T_jup = 3.207 
[ show covariance matrix ]

Ephemeris | Orbit Diagram | Orbital Elements | Mission Design | Physical Parameters | Discovery Circumstances | Close-Approach Data ]

Physical Parameter Table
Parameter Symbol Value Units Sigma Reference Notes
absolute magnitude H 15.4   n/a MPO417506  
diameter diameter 6.291 km 0.323 urn:nasa:pds:neowise_diameters_albedos::2.0[mainbelt] (http://adsabs.harvard.edu/abs/2011ApJ...741...68M)  
geometric albedo albedo 0.026   0.004 urn:nasa:pds:neowise_diameters_albedos::2.0[mainbelt] (http://adsabs.harvard.edu/abs/2011ApJ...741...68M)  

100476 (1996 TK37)          Discovered 1996-Oct-12 by Spacewatch at Kitt Peak
Reference: 20051019/Numbers.arcLast Updated: 2005-10-26

[ show close-approach data ]
Alternate Designations
 1996 TK37 = 2001 SK300 = 2001 TA198 
Ephemeris | Orbit Diagram | Orbital Elements | Mission Design | Physical Parameters | Discovery Circumstances | Close-Approach Data ]
ABOUT SSD CREDITS/AWARDS PRIVACY/COPYRIGHT GLOSSARY LINKS
FirstGov 2020-Nov-25 06:33 UT
(server date/time)  
NASA Home Page
Site Manager:   Ryan S. Park
Webmaster  Alan B. Chamberlin